Weather in Lesnoj Gorodok

Russia / Moscow Oblast     55°38′10″N   37°12′45″E
temp.,
°C
wind,
m/s
gust,
m/s
humid.,
%
clouds,
%
prec.,
mm/h
press.,
hPa
HPBL,
m
13 june, sun
sun1300:00+14sw228695 0.0 100749
03:00+13sw229229 0.0 100647
06:00+15sw128794 0.0 1006102
09:00+20ssw22672 0.3 1006589
12:00+23sw23490 0.3 10061664
15:00+25sw343971 0.3 10052460
18:00+23sw245045 0.0 10061030
21:00+19ssw22726 0.0 100840
14 june, mon
mon1400:00+16sw25834 0.0 1009111
03:00+15ssw22855 0.0 101037
06:00+16ssw23815 0.0 1012128
09:00+22ssw236441 0.0 1013664
12:00+25sw234730 0.1 10141878
15:00+27wsw233991 0.1 10132358
18:00+22w256599 0.0 1014215
21:00+21w117097 0.1 101526
15 june, tue
tue1500:00+18wnw118689 0.6 101517
03:00+17w118619 0.6 101411
06:00+18nw11845 0.0 101576
09:00+22w226519 0.0 1014502
12:00+26wsw2248100 0.1 10131683
15:00+27wsw2341100 0.1 10112275
18:00+24wsw1260100 0.0 101089
21:00+21wnw2569100 0.0 1010159
16 june, wed
wed1600:00+20nnw2573100 0.0 1010172
03:00+18nw2676100 0.0 1010216
06:00+18nnw367460 0.0 1011201
09:00+21nnw46555 0.0 1012775
12:00+23nnw564936 0.0 10131769
15:00+21nnw675228 0.1 10151478
18:00+21nne47500 0.0 10151395
21:00+18nne410530 0.0 1017781
17 june, thu
thu1700:00+15n312535 0.0 1019407
03:00+14n412570 0.0 1021360
06:00+14n39580 0.0 1022299
09:00+18nne46440 0.0 1023742
12:00+21nne44350 0.0 10241663
15:00+23nne34325 0.0 10231767
18:00+22n44375 0.0 10241514
21:00+18nne36555 0.0 1025199